星链-36993(STARLINK-36993)

导读

STARLINK-36993(NORAD编号67994)是美国太空探索技术公司(SpaceX)发射的星链(Starlink)低轨互联网卫星,属于星链星座组网卫星之一。它运行在近地轨道,近地点约570公里,远地点约574公里,轨道倾角约70度,轨道周期约96分钟。作为星链卫星,它配备相控阵天线,支持多波束通信,部分星链该批次卫星搭载光学激光星间链路,可提供高速低延迟的宽带互联网服务,覆盖全球,服务民用及部分特定领域通信需求,是SpaceX构建全球低轨卫星互联网星座的组成单元。

基本信息
目录编号:
67994
目录名称:
STARLINK-36993
国际标识:
2026-039J
轨道中心:
EARTH
卫星名称:
星链-36993
卫星全名:
星链-36993(STARLINK-36993)
卫星状态:
在轨 (已飞行151 天)
发射日期:
2026-02-27 UTC
国别 :
美国 (US)
星等 :
--
轨道信息
数据来源 国际轨道数据
星历时间: 2026-07-27T18:06:58+0800
16小时前
查看轨道信息
半长轴: 6861.104km
偏心率: 0.0002374
轨道倾角: 43.002°
近地点辐角 162.034°
升交点赤经 339.794°
平近点角 198.060°
近地点: 481.338km
远地点: 484.596km
周期: 94.265分钟
每日圈数: 15.276075
详细信息
固有亮度:
5
最大亮度:
2.5
卫星平台:
Starlink V1.0
覆盖范围:
全球
运营商:
太空探索技术公司
运营商所在国:
美国
制造商(研发单位):
太空探索技术公司
制造商所在国:
美国
使用方式:
暂无
卫星简介
Starlink 计划是 SpaceX 推出的全球卫星互联网项目,通过发射低轨道卫星,为全球尤其是偏远地区提供高速、低延迟的互联网服务。自 2019 年起,Starlink 已部署数千颗卫星,旨在缩小全球数字鸿沟,推动互联网普及。该项目还为军事、航空等行业提供通信支持,带来广泛经济效益。
2D轨道图
3D轨道图
轨道高度分析图
轨道倾角分析图
轨道综合分析图
查看轨道综合分析图